Theta_e
305 304 305 302 304 304 303 304 307 309 311 317 321 323 323 322 322 323 324 329 329 329 327 326 328 326 324 324 324 323 325 325 324 326 325 327 327 326 325 325 326 325 324 324
304 306 303 302 302 305 306 307 307 307 310 312 318 322 323 323 323 324 324 327 328 326 327 327 328 327 325 325 324 323 324 325 325 328 326 326 325 321 323 322 321 322 322 321
304 303 302 303 304 305 305 306 305 306 307 311 316 322 320 320 320 321 325 326 329 326 327 328 328 328 327 326 325 323 324 325 325 326 325 325 321 319 316 316 319 318 317 315
304 304 304 304 304 304 305 305 306 308 311 315 317 322 321 319 320 321 321 329 330 327 326 327 327 327 327 327 326 325 325 325 325 325 326 325 318 312 315 318 317 316 313 310
305 305 306 307 305 305 306 305 305 308 310 311 312 323 318 319 320 320 321 325 330 329 326 327 327 327 327 327 326 326 326 326 325 326 327 324 319 319 319 315 313 310 306 303
306 305 305 306 305 303 306 306 310 308 311 313 312 322 319 323 321 320 319 322 330 330 326 326 326 326 326 326 326 326 326 326 326 324 324 323 323 320 313 311 307 303 300 299
302 308 306 305 309 306 307 309 312 312 311 314 314 320 320 318 321 321 322 322 329 330 327 325 325 326 326 325 326 325 325 324 323 323 323 323 324 322 318 313 307 300 297 297
304 305 310 306 310 309 307 307 313 315 319 320 322 325 321 318 319 320 321 324 330 330 329 326 324 324 323 324 324 325 325 323 322 322 321 323 322 317 312 309 305 300 298 296
302 305 307 305 306 309 309 310 309 316 316 317 320 323 320 318 319 321 322 325 332 331 330 326 323 322 322 322 323 323 324 322 321 321 321 319 318 314 310 305 301 298 296 295
302 305 307 309 303 306 313 311 311 316 321 316 319 322 322 322 317 319 323 329 331 331 328 325 321 317 316 319 320 322 321 319 318 318 317 315 312 310 308 303 298 297 295 296
301 305 306 308 311 316 319 317 319 319 321 320 321 323 318 316 317 318 326 329 331 329 322 319 314 311 309 310 311 312 313 313 312 312 309 307 305 304 302 300 300 298 297 302
300 304 308 308 307 306 310 320 320 319 321 322 321 319 316 319 318 317 329 326 319 314 309 307 306 305 304 303 306 306 308 307 307 307 304 302 300 299 300 299 298 298 306 307
300 304 307 307 310 310 314 314 319 319 318 320 323 323 314 315 318 319 316 313 309 307 305 304 303 301 300 299 299 299 300 299 300 300 301 299 301 300 301 300 303 303 303 303
298 305 305 306 308 309 313 314 319 319 322 321 318 319 314 315 313 312 311 309 307 305 303 302 301 301 300 299 299 299 299 300 300 300 300 300 298 301 301 302 303 302 302 297
297 301 302 302 306 308 312 313 317 317 314 318 315 315 312 312 311 310 308 307 306 305 304 302 302 301 299 299 298 298 298 299 299 300 299 299 301 301 301 302 303 301 295 291
296 300 299 305 309 308 312 307 312 314 313 313 313 314 312 310 309 309 308 307 306 305 304 302 301 300 299 299 298 298 298 299 301 301 301 301 301 301 303 301 297 293 291 290
296 297 300 305 306 308 310 306 309 310 306 311 311 309 308 307 307 308 308 306 305 304 303 302 301 300 299 299 298 298 299 301 302 302 302 301 300 301 299 296 293 291 290 290
296 297 301 303 305 312 307 303 304 307 305 303 307 306 306 305 303 300 303 306 304 302 301 300 300 299 298 299 300 300 301 301 302 302 302 301 301 300 296 293 292 292 291 290
296 298 299 301 304 310 308 303 303 302 309 300 303 304 304 306 307 301 297 302 303 302 301 300 299 299 300 300 301 302 302 302 300 301 301 302 300 297 295 293 292 291 291 290
297 297 298 300 306 309 306 299 299 302 312 299 300 301 303 308 307 300 295 295 299 299 300 299 299 299 300 299 300 300 298 298 299 299 299 298 297 295 294 293 292 292 291 290
289 294 297 299 304 306 297 297 298 308 305 296 299 299 298 298 296 294 293 292 292 293 293 295 294 291 294 298 299 298 297 293 293 295 296 295 295 294 294 295 293 291 291 289
296 298 299 300 303 304 296 297 300 297 295 297 298 297 296 294 293 291 290 289 290 289 289 289 287 285 289 293 295 289 287 288 290 291 292 292 292 291 291 290 289 289 288 287
301 298 299 300 300 296 294 293 292 293 295 295 296 295 293 292 290 289 288 287 286 285 285 284 283 281 282 284 286 285 283 287 288 289 289 289 289 289 289 290 290 289 288 286
297 292 296 296 297 295 293 291 291 292 292 290 290 291 290 289 288 287 286 284 283 281 280 280 280 278 277 279 280 280 281 283 285 285 285 285 285 285 285 285 284 284 284 284
293 291 293 297 296 295 295 289 289 290 289 289 287 286 287 287 285 284 282 281 279 278 277 277 276 276 275 276 276 277 278 279 280 280 280 280 281 281 281 282 281 282 283 282
290 291 295 297 292 293 292 287 287 286 285 285 286 284 281 283 283 280 278 277 276 275 275 275 274 274 274 275 275 276 276 278 279 279 278 278 278 278 278 278 281 280 280 280
Wind_Speed
5 4 9 19 16 18 10 13 14 14 12 14 17 20 18 16 8 13 12 13 15 16 14 22 26 29 30 30 33 35 36 37 34 30 29 26 25 23 21 19 19 17 14 11
2 13 23 12 9 14 16 16 19 18 17 14 18 14 17 13 20 15 14 16 16 14 15 16 23 28 31 32 32 34 36 38 36 34 31 27 27 23 22 19 18 16 14 11
15 19 10 15 14 15 18 19 19 16 15 18 17 14 13 9 13 11 12 14 16 18 19 18 20 31 31 32 34 35 36 38 37 34 31 27 26 24 20 19 18 16 14 13
12 19 20 19 19 18 19 19 19 16 6 8 12 10 14 19 16 14 17 14 16 18 18 19 19 26 31 32 33 35 37 38 34 37 35 34 28 20 22 24 20 18 16 15
15 12 11 17 26 17 17 11 15 14 14 12 21 8 14 13 15 20 18 18 17 18 19 19 21 30 30 32 34 36 38 36 38 39 38 36 30 28 28 25 22 20 19 17
21 23 19 24 12 20 6 14 7 11 7 12 23 13 4 11 17 13 16 21 20 19 19 19 27 27 29 30 33 34 37 36 41 40 38 37 36 31 29 29 26 23 21 19
22 6 4 13 11 16 17 5 4 3 4 13 14 14 15 6 10 18 20 22 22 20 20 19 19 19 27 29 33 35 37 33 38 40 40 38 36 35 35 34 32 28 25 22
7 9 2 2 6 8 21 19 3 6 9 4 6 9 6 8 6 5 6 17 19 21 20 21 21 23 28 33 34 34 34 32 37 37 38 38 36 36 33 34 33 29 27 24
6 7 6 10 9 7 12 12 20 5 3 3 4 3 9 6 5 7 10 19 22 22 21 21 19 24 27 29 31 33 33 32 36 37 38 37 35 34 33 31 30 27 25 24
5 11 5 6 2 8 6 7 3 7 3 3 5 3 6 2 5 8 13 20 21 19 20 16 16 19 20 22 25 28 31 34 36 38 37 36 34 32 31 30 30 27 23 20
16 5 10 11 3 2 5 7 9 4 2 2 3 3 1 5 9 10 14 17 17 15 12 13 10 16 23 22 21 23 27 30 31 32 31 32 30 28 31 32 28 26 25 21
6 7 8 19 12 5 5 2 2 3 3 1 0 3 6 8 9 7 9 10 11 12 12 11 11 16 20 21 23 22 24 26 27 29 29 28 29 31 29 29 30 27 21 14
11 5 9 14 3 4 6 5 4 2 1 3 3 1 10 6 4 11 14 12 11 14 13 12 10 12 14 18 23 22 22 21 22 23 27 27 32 32 30 28 24 18 13 10
13 4 3 6 8 7 8 10 4 1 1 2 3 4 9 8 8 7 12 13 12 12 13 13 11 12 16 15 23 22 23 22 24 26 30 34 26 31 30 23 18 13 11 11
6 5 9 15 12 6 6 12 7 9 4 4 4 3 7 8 9 11 11 13 13 13 13 13 11 11 14 16 22 18 24 30 26 31 27 28 27 23 17 12 10 10 10 11
8 4 10 4 3 13 4 22 14 11 9 4 5 4 11 9 10 12 12 13 12 13 13 12 14 7 15 17 19 21 26 27 28 27 26 22 16 13 9 7 8 9 11 13
6 8 6 6 15 13 8 18 13 7 13 6 8 6 10 15 17 15 12 12 12 14 12 12 10 11 15 18 19 22 26 26 25 23 18 14 9 6 5 7 10 12 12 13
8 10 3 4 10 7 2 9 5 5 16 19 11 12 9 11 14 17 15 12 13 13 12 11 12 17 17 21 24 24 23 21 18 13 10 6 5 5 6 8 10 11 13 15
3 4 4 3 4 3 1 10 8 7 7 19 14 14 8 3 11 16 16 13 13 12 11 13 19 17 21 19 20 20 17 12 7 4 3 5 8 8 8 10 12 13 15 16
4 2 2 4 3 5 4 20 15 3 10 20 20 17 11 5 14 6 13 12 14 18 18 19 21 20 20 15 15 15 11 6 1 4 6 6 7 8 10 10 12 13 16 19
6 4 2 4 2 2 10 25 12 5 6 17 14 13 16 12 7 5 11 15 20 21 23 26 27 23 17 11 10 12 11 11 8 5 5 4 5 6 9 12 13 16 17 18
3 5 3 4 5 6 23 11 8 6 7 7 10 10 14 12 12 14 15 15 17 19 21 22 25 27 26 21 18 19 19 14 11 9 8 7 6 7 8 10 11 13 15 17
3 3 3 5 2 4 9 6 8 5 3 7 7 9 10 13 13 12 13 14 17 20 21 22 24 26 31 28 24 25 20 16 14 12 12 11 9 8 9 11 12 14 14 16
2 3 1 2 3 7 11 11 12 9 12 12 11 11 11 12 11 12 12 12 16 20 23 25 29 28 29 29 29 26 22 19 17 17 16 14 13 12 11 11 12 14 16 18
2 6 4 1 3 5 10 12 11 10 12 12 12 12 11 10 11 10 11 13 16 19 23 29 26 27 27 28 29 28 26 24 22 22 22 22 22 22 21 19 19 20 17 17
1 2 2 1 4 2 4 8 8 10 11 10 10 12 16 14 11 14 13 15 16 18 22 26 28 28 28 29 31 31 30 29 28 29 29 28 27 26 25 26 28 22 15 19
Wind_Direction
207 167 219 226 213 238 259 266 274 267 286 278 247 248 238 224 219 220 217 208 202 195 199 180 182 181 181 186 187 194 194 197 195 190 186 180 179 179 176 177 180 181 179 182
302 230 233 235 222 231 241 248 256 271 271 275 266 256 249 222 227 221 215 210 202 187 169 171 176 176 182 183 187 188 193 196 194 194 189 183 179 174 173 175 173 174 177 182
236 245 225 230 225 223 231 233 246 244 273 282 275 264 244 251 235 228 215 213 199 188 180 177 180 182 182 182 184 187 191 194 196 196 189 184 174 169 166 169 171 172 175 177
241 259 239 238 236 207 240 222 230 243 241 259 207 246 219 232 228 220 223 206 198 192 188 183 179 186 184 186 183 186 192 193 191 199 193 190 176 166 180 176 176 176 177 178
254 243 229 231 232 201 235 196 216 214 228 269 270 227 244 206 226 223 212 206 200 192 183 186 187 188 186 181 182 186 191 188 193 197 200 191 179 184 183 179 175 174 174 174
260 257 226 228 220 208 211 261 238 215 220 247 248 238 224 207 209 215 209 206 199 186 184 185 188 181 184 183 179 183 185 187 197 197 198 190 193 185 179 178 176 173 172 167
314 293 167 198 222 204 202 217 211 151 178 244 227 213 239 231 203 202 203 199 193 181 176 176 177 181 178 180 180 183 185 186 192 195 197 201 201 196 193 186 184 173 169 166
331 320 206 116 212 173 194 194 192 191 188 189 175 198 227 239 196 217 229 195 183 178 176 175 174 175 179 183 183 183 184 186 191 194 196 200 201 198 193 190 185 179 172 167
298 261 213 231 197 189 165 203 227 317 183 116 183 279 303 221 247 228 219 187 186 179 177 171 167 173 176 175 178 181 181 184 189 194 199 197 197 197 192 188 181 173 170 161
277 292 275 318 219 238 248 140 129 225 168 225 191 214 234 140 297 271 203 187 185 175 170 161 154 148 143 155 169 174 176 178 184 193 195 193 193 194 191 178 167 163 164 164
307 257 292 324 29 19 166 171 225 175 263 218 166 207 61 289 283 300 184 178 175 161 145 137 130 122 115 134 145 152 162 168 173 181 181 182 180 180 174 165 160 165 172 173
299 305 324 317 324 258 239 96 209 113 241 305 79 268 351 299 262 237 170 126 111 114 112 109 113 114 114 126 136 145 157 164 168 171 169 167 164 159 157 156 158 184 175 184
333 305 330 337 317 8 14 341 287 188 168 194 183 308 334 11 26 118 114 110 109 110 105 102 102 101 98 108 110 115 126 134 141 154 152 148 147 143 145 171 172 184 192 203
334 281 31 287 284 289 297 310 300 212 48 8 28 324 337 33 48 73 93 97 101 102 102 99 95 93 104 106 108 119 126 134 140 140 135 140 155 153 171 174 173 195 212 202
4 291 338 291 274 314 330 326 33 57 358 37 322 359 338 25 56 65 82 89 93 94 96 96 94 93 112 113 101 127 122 128 135 135 143 148 155 162 171 175 187 200 202 206
349 291 316 277 310 340 344 17 14 51 18 356 331 46 7 60 72 69 74 84 92 99 98 113 101 119 107 105 109 112 119 130 140 144 141 142 153 172 172 180 196 203 213 221
324 325 328 303 331 317 27 355 17 50 27 338 19 355 36 45 44 41 61 72 84 79 85 88 95 88 98 105 116 115 131 138 143 139 138 152 169 188 195 200 206 216 228 237
307 322 294 299 324 42 132 5 1 359 39 17 21 22 50 64 57 37 24 62 71 80 86 88 94 91 94 113 118 126 127 132 136 141 154 175 223 252 229 220 225 238 245 252
273 299 322 357 303 285 67 7 343 353 7 14 1 2 349 338 74 38 15 43 74 84 84 86 89 99 107 111 120 121 126 133 134 149 232 283 287 274 258 244 245 259 267 268
282 252 327 340 352 8 323 329 329 238 35 357 350 6 25 27 65 19 3 33 56 68 78 86 94 103 104 113 124 125 127 136 118 307 300 285 262 251 250 262 274 279 280 282
344 342 6 332 343 330 351 329 318 51 331 331 341 15 47 64 53 42 46 46 53 59 66 82 80 73 74 90 106 88 74 42 10 352 350 350 308 293 286 288 291 293 292 288
314 334 355 330 6 355 360 352 46 321 312 328 6 19 56 63 61 58 57 55 54 56 59 68 72 61 65 71 85 74 54 34 29 27 27 15 355 328 310 305 303 298 297 297
357 22 323 9 10 298 345 332 324 316 332 8 22 35 62 66 55 54 59 55 53 59 61 66 71 66 60 60 60 57 36 33 34 36 35 28 18 4 346 333 322 310 304 297
343 2 321 292 350 339 13 357 8 12 39 25 31 43 50 65 53 55 52 46 51 47 48 55 59 55 51 50 50 46 37 35 34 36 32 25 18 11 2 351 338 323 317 317
275 337 351 329 348 320 24 13 360 16 25 29 38 39 37 63 53 58 55 48 48 53 55 59 60 58 52 48 45 38 33 30 33 33 29 23 19 14 7 2 357 346 341 331
354 353 24 352 317 327 23 352 7 41 27 18 42 45 33 41 60 62 58 50 52 56 55 59 60 59 51 46 42 37 32 29 27 27 23 19 14 10 8 1 350 359 350 340